Regional Weather Roundup
Issued by NWS

Home | Current Version | Previous Version | Graphics & Text | Print | Product List | Glossary Off
Versions: 1 2 3 4 5 6 7 8 9 10 11 12 13 14 15 16 17 18 19 20 21 22 23 24 25 26 27 28 29 30 31 32 33 34 35 36 37 38 39 40 41 42 43 44 45 46 47 48 49 50

000
ASUS43 KOAX 270310
RWRNE

WEATHER ROUNDUP FOR NEBRASKA
NATIONAL WEATHER SERVICE OMAHA NE
900 PM CST FRI DEC 26 2014

NOTES: SATELLITE DATA IS BEING USED TO AUGMENT CLOUD COVER ABOVE
       12000 FEET.
       "FAIR" INDICATES FEW OR NO CLOUDS BELOW 12,000 FEET WITH NO
       SIGNIFICANT WEATHER AND/OR OBSTRUCTIONS TO VISIBILITY.

  * THESE STATIONS DO NOT REPORT WEATHER SUCH AS RAIN...SNOW OR FOG.

NEZ001>004-019>022-054>056-270400-
NEBRASKA PANHANDLE

CITY           SKY/WX    TMP DP  RH WIND       PRES   REMARKS
SCOTTSBLUFF    CLOUDY    16  13  88 W5        30.09R WCI   9
ALLIANCE       CLOUDY    17  14  88 N5        30.07R WCI  10
CHADRON        CLOUDY    19  14  81 CALM      30.13R
KIMBALL        LGT SNOW  15  13  92 NW3       30.02R
SIDNEY         LGT SNOW  16  13  88 N7        30.07R FOG     WCI   6
$$

NEZ057>060-069>072-079>082-270400-
SOUTHWEST NEBRASKA

CITY           SKY/WX    TMP DP  RH WIND       PRES   REMARKS
NORTH PLATTE   LGT SNOW  19  16  88 NW3       30.11R VSB 1
IMPERIAL       LGT SNOW  19  15  84 N8        30.11R FOG     WCI   9
LEXINGTON      LGT SNOW  22  20  91 NW12      30.11R VSB 3/4 WCI  11
MCCOOK         LGT SNOW  21  18  88 N15       30.13R VSB 1   WCI   8
OGALLALA       LGT SNOW  20  17  88 N10       30.11R WCI   8
$$

NEZ005>010-023>029-035>040-094-270400-
NORTH CENTRAL NEBRASKA

CITY           SKY/WX    TMP DP  RH WIND       PRES   REMARKS
VALENTINE      LGT SNOW  18  15  88 N9        30.12R FOG     WCI   7
AINSWORTH      LGT SNOW  18  16  90 N12       30.10R WCI   5
BROKEN BOW     LGT SNOW  20  16  84 N16       30.09R FOG     WCI   6
O`NEILL        LGT SNOW  21  20  95 N10       30.09F WCI  10
ORD            LGT SNOW  21  17  84 N14G22    30.09R FOG     WCI   8
THEDFORD       LGT SNOW  20  18  91 NW9       30.10R VSB 1   WCI   9
$$

NEZ041-046>049-061>064-073>077-083>087-270400-
SOUTH CENTRAL NEBRASKA

CITY           SKY/WX    TMP DP  RH WIND       PRES   REMARKS
GRAND ISLAND   LGT SNOW  22  20  92 NW9       30.08R FOG     WCI  12
AURORA         LGT SNOW  24  23  96 NW10      30.06S WCI  13
HASTINGS       LGT SNOW  23  20  88 N12       30.06R FOG     WCI  12
HEBRON         LGT SNOW  28  26  91 N12       30.05R WCI  18
HOLDREGE       LGT SNOW  22  19  89 NW6       30.10R WCI  15
KEARNEY *      CLOUDY    21  18  86 N13       30.09R WCI   9
YORK           LGT SNOW  25  25 100 N10       30.04F WCI  15
$$

NEZ011>018-030>034-042>045-270400-
NORTHEAST NEBRASKA

CITY           SKY/WX    TMP DP  RH WIND       PRES   REMARKS
NORFOLK        LGT SNOW  24  21  88 N16       30.04S FOG     WCI  11
ALBION         LGT SNOW  23  19  83 N13G22    30.06R WCI  11
BLAIR          CLOUDY    32  30  93 N9        29.99S FOG     WCI  24
COLUMBUS *     CLOUDY    25  19  80 N9        30.07R WCI  15
FREMONT        LGT SNOW  31  30  96 N6        30.04R WCI  25
TEKAMAH        LGT SNOW  31  29  92 N13       30.03R FOG     WCI  21
WAYNE          LGT SNOW  25  23  91 N14G22    30.05S WCI  14
$$

NEZ050>053-065>068-078-088>093-270400-
SOUTHEAST NEBRASKA

CITY           SKY/WX    TMP DP  RH WIND       PRES   REMARKS
LINCOLN        CLOUDY    31  29  92 N10       30.04R FOG     WCI  22
OMAHA EPPLEY   FRZ DRZL  32  31  96 N8        30.03R FOG     WCI  25
BEATRICE       LGT SNOW  31  30  98 N7        30.02F WCI  24
FALLS CITY     CLOUDY    34  32  92 N6        30.00R FOG     WCI  29
NEBRASKA CITY  CLOUDY    32  32 100 N5        30.01R FOG     WCI  28
PLATTSMOUTH    CLOUDY    32  31  94 N7        30.01R FOG     WCI  26
$$

NEZ044-045-051>053-067-270400-
OMAHA AREA

CITY           SKY/WX    TMP DP  RH WIND       PRES   REMARKS
OMAHA EPPLEY   FRZ DRZL  32  31  96 N8        30.03R FOG     WCI  25
BLAIR          CLOUDY    32  30  93 N9        29.99S FOG     WCI  24
FREMONT        LGT SNOW  31  30  96 N6        30.04R WCI  25
MILLARD        DRIZZLE   32  31  96 N3        30.03R
OFFUTT AFB     FRZ RAIN  32  31  95 N5        30.01R FOG     WCI  28
PLATTSMOUTH    CLOUDY    32  31  94 N7        30.01R FOG     WCI  26
WAHOO          CLOUDY    31  28  89 N9G17     30.04R WCI  23
$$


USA.gov is the U.S. government's official web portal to all federal, state and local government web resources and services.